Fergus Falls, MN

1:04 AM CST on November 12, 2019 (GMT -0600)
Fergus Falls Municipal-Mickelson

Weather History for KFFM - September, 2019

Change the Weather History Date:

Tuesday, September 17, 2019

  Actual Average Record
Temperature  
Mean Temperature 78 °F -  
Max Temperature 86 °F 66 °F 91 °F (1955)
Min Temperature 69 °F 47 °F 32 °F (1959)
Cooling Degree Days 12    
Growing Degree Days 28 (Base 50)    
Moisture  
Dew Point 69 °F    
Average Humidity 74    
Maximum Humidity 94    
Minimum Humidity 58    
Precipitation  
Precipitation 0.00 in - - ()
Sea Level Pressure  
Sea Level Pressure 29.77 in    
Wind  
Wind Speed 16 mph ()    
Max Wind Speed 26 mph    
Max Gust Speed 33 mph    
Visibility 9.7 miles    
Events Rain , Thunderstorm    
Averages and records for this station are not official NWS values.
T = Trace of Precipitation, MM = Missing Value Source: Averaged Metar Reports

Daily Weather History Graph

Daily Weather History Graph

Search for Another Location

Airport or City:

Astronomy

Sep. 17, 2019 Rise Set
Actual Time 7:04 AM CDT 7:32 PM CDT
Civil Twilight 6:34 AM CDT 8:02 PM CDT
Nautical Twilight 5:59 AM CDT 8:38 PM CDT
Astronomical Twilight 5:22 AM CDT 9:14 PM CDT
Moon 9:25 PM CDT (9/17) 10:19 AM CDT (9/17)
Length of Visible Light 13h 27m
Length of Day
12h 27m
Waning Gibbous, 89% of the Moon is Illuminated
Sep 17
Waning Gibbous
Sep 21
Last Quarter
Sep 28
New
Oct 5
First Quarter
Oct 13
Full

Hourly Weather History & Observations

Time (CDT) Temp. Heat Index Dew Point Humidity Pressure Visibility Wind Dir Wind Speed Gust Speed Precip Events Conditions
12:16 AM 75.2 °F - 69.8 °F 83% 29.85 in 10.0 mi South 12.7 mph - N/A   Clear
12:36 AM 75.2 °F - 69.8 °F 83% 29.84 in 10.0 mi South 13.8 mph - N/A   Clear
12:55 AM 73.4 °F - 69.8 °F 88% 29.84 in 10.0 mi SSE 13.8 mph - N/A   Clear
12:56 AM 73.4 °F - 69.8 °F 88% 29.84 in 10.0 mi SSE 13.8 mph - N/A   Clear
1:15 AM 73.4 °F - 69.8 °F 88% 29.84 in 10.0 mi SSE 12.7 mph - N/A   Clear
1:37 AM 73.4 °F - 69.8 °F 88% 29.84 in 10.0 mi SSE 12.7 mph - N/A   Clear
2:15 AM 73.4 °F - 69.8 °F 88% 29.85 in 10.0 mi South 11.5 mph - N/A   Clear
2:35 AM 73.4 °F - 69.8 °F 88% 29.85 in 10.0 mi South 13.8 mph - N/A   Clear
2:36 AM 73.4 °F - 69.8 °F 88% 29.85 in 10.0 mi South 12.7 mph - N/A   Clear
2:58 AM 73.4 °F - 69.8 °F 88% 29.85 in 10.0 mi SSE 15.0 mph - N/A   Clear
3:16 AM 73.4 °F - 69.8 °F 88% 29.86 in 10.0 mi South 19.6 mph 25.3 mph N/A   Clear
3:35 AM 75.2 °F - 68.0 °F 78% 29.86 in 10.0 mi SSW 15.0 mph 25.3 mph N/A   Clear
3:36 AM 75.2 °F - 68.0 °F 78% 29.86 in 10.0 mi South 15.0 mph 25.3 mph N/A   Clear
3:55 AM 71.6 °F - 68.0 °F 88% 29.86 in 7.0 mi SSW 20.7 mph 27.6 mph N/A Rain Light Rain
3:56 AM 71.6 °F - 68.0 °F 88% 29.86 in 7.0 mi SSW 24.2 mph 31.1 mph N/A Rain Light Rain
4:18 AM 69.8 °F - 66.2 °F 88% 29.86 in 7.0 mi South 24.2 mph - N/A Rain Light Rain
4:36 AM 69.8 °F - 66.2 °F 88% 29.86 in 10.0 mi South 17.3 mph - N/A   Scattered Clouds
4:56 AM 69.8 °F - 66.2 °F 88% 29.88 in 7.0 mi South 17.3 mph - N/A Rain , Thunderstorm Light Thunderstorms and Rain
5:15 AM 69.8 °F - 68.0 °F 94% 29.87 in 1.5 mi SSE 17.3 mph - N/A Rain , Thunderstorm Heavy Thunderstorms and Rain
5:16 AM 69.8 °F - 68.0 °F 94% 29.87 in 1.5 mi SSE 18.4 mph - N/A Rain , Thunderstorm Heavy Thunderstorms and Rain
5:39 AM 69.8 °F - 66.2 °F 88% 29.86 in 7.0 mi SSE 16.1 mph - N/A Rain Light Rain
6:16 AM 69.8 °F - 68.0 °F 94% 29.82 in 10.0 mi ESE 15.0 mph - N/A Rain Light Rain
6:35 AM 69.8 °F - 66.2 °F 88% 29.82 in 10.0 mi SE 16.1 mph 20.7 mph N/A   Scattered Clouds
6:36 AM 69.8 °F - 66.2 °F 88% 29.82 in 10.0 mi SE 16.1 mph 20.7 mph N/A   Scattered Clouds
6:55 AM 69.8 °F - 64.4 °F 83% 29.81 in 10.0 mi SE 17.3 mph 21.9 mph N/A   Clear
7:18 AM 69.8 °F - 64.4 °F 83% 29.81 in 10.0 mi SE 15.0 mph - N/A   Clear
7:37 AM 69.8 °F - 64.4 °F 83% 29.81 in 10.0 mi SE 12.7 mph - N/A   Clear
7:56 AM 69.8 °F - 66.2 °F 88% 29.80 in 10.0 mi SE 12.7 mph - N/A   Clear
8:15 AM 69.8 °F - 64.4 °F 83% 29.80 in 10.0 mi SE 12.7 mph - N/A   Clear
8:16 AM 69.8 °F - 64.4 °F 83% 29.80 in 10.0 mi SE 13.8 mph - N/A   Clear
8:35 AM 71.6 °F - 66.2 °F 83% 29.80 in 10.0 mi SE 13.8 mph 18.4 mph N/A   Clear
8:57 AM 71.6 °F - 66.2 °F 83% 29.79 in 10.0 mi SSE 16.1 mph 24.2 mph N/A   Clear
9:15 AM 71.6 °F - 66.2 °F 83% 29.79 in 10.0 mi SSE 15.0 mph 20.7 mph N/A   Clear
9:35 AM 73.4 °F - 66.2 °F 78% 29.78 in 10.0 mi SSE 18.4 mph 27.6 mph N/A   Clear
9:55 AM 73.4 °F - 68.0 °F 83% 29.78 in 10.0 mi SSE 18.4 mph 23.0 mph N/A   Clear
9:56 AM 73.4 °F - 68.0 °F 83% 29.78 in 10.0 mi SSE 18.4 mph 23.0 mph N/A   Clear
10:19 AM 77.0 °F - 69.8 °F 78% 29.77 in 10.0 mi SSE 18.4 mph - N/A   Clear
10:36 AM 77.0 °F - 69.8 °F 78% 29.77 in 10.0 mi South 20.7 mph 27.6 mph N/A   Clear
10:55 AM 78.8 °F - 69.8 °F 74% 29.77 in 10.0 mi South 23.0 mph - N/A   Clear
10:56 AM 78.8 °F - 69.8 °F 74% 29.77 in 10.0 mi South 20.7 mph 25.3 mph N/A   Clear
11:15 AM 78.8 °F - 69.8 °F 74% 29.77 in 10.0 mi South 24.2 mph 29.9 mph N/A   Scattered Clouds
11:16 AM 78.8 °F - 69.8 °F 74% 29.77 in 10.0 mi South 23.0 mph 29.9 mph N/A   Scattered Clouds
11:35 AM 80.6 °F 83.9 °F 69.8 °F 70% 29.77 in 10.0 mi South 23.0 mph 28.8 mph N/A   Scattered Clouds
11:40 AM 80.6 °F 83.9 °F 69.8 °F 70% 29.77 in 10.0 mi South 21.9 mph 29.9 mph N/A   Clear
11:57 AM 80.6 °F 83.9 °F 69.8 °F 70% 29.76 in 10.0 mi South 21.9 mph 28.8 mph N/A   Clear
12:15 PM 80.6 °F 83.9 °F 69.8 °F 70% 29.76 in 10.0 mi South 21.9 mph 29.9 mph N/A   Scattered Clouds
12:35 PM 80.6 °F 83.9 °F 69.8 °F 70% 29.75 in 10.0 mi South 21.9 mph 28.8 mph N/A   Clear
12:36 PM 80.6 °F 83.9 °F 69.8 °F 70% 29.75 in 10.0 mi South 21.9 mph 28.8 mph N/A   Clear
12:55 PM 82.4 °F 87.2 °F 71.6 °F 70% 29.75 in 10.0 mi South 21.9 mph 27.6 mph N/A   Scattered Clouds
1:18 PM 82.4 °F 86.3 °F 69.8 °F 66% 29.74 in 10.0 mi South 20.7 mph 29.9 mph N/A   Scattered Clouds
1:36 PM 82.4 °F 86.3 °F 69.8 °F 66% 29.73 in 10.0 mi South 23.0 mph 31.1 mph N/A   Clear
1:55 PM 84.2 °F 89.6 °F 71.6 °F 66% 29.73 in 10.0 mi South 20.7 mph 29.9 mph N/A   Clear
2:15 PM 84.2 °F 89.6 °F 71.6 °F 66% 29.72 in 10.0 mi South 24.2 mph 31.1 mph N/A   Clear
2:16 PM 84.2 °F 89.6 °F 71.6 °F 66% 29.72 in 10.0 mi South 24.2 mph 31.1 mph N/A   Clear
2:35 PM 84.2 °F 88.4 °F 69.8 °F 62% 29.72 in 10.0 mi South 25.3 mph 31.1 mph N/A   Clear
2:39 PM 84.2 °F 89.6 °F 71.6 °F 66% 29.71 in 10.0 mi South 25.3 mph 31.1 mph N/A   Clear
2:58 PM 84.2 °F 89.6 °F 71.6 °F 66% 29.71 in 10.0 mi South 25.3 mph 33.4 mph N/A   Clear
3:15 PM 86.0 °F 91.8 °F 71.6 °F 62% 29.71 in 10.0 mi South 19.6 mph 29.9 mph N/A   Clear
3:35 PM 86.0 °F 90.4 °F 69.8 °F 58% 29.70 in 10.0 mi South 26.5 mph 32.2 mph N/A   Clear
3:36 PM 86.0 °F 90.4 °F 69.8 °F 58% 29.70 in 10.0 mi South 23.0 mph 32.2 mph N/A   Clear
3:55 PM 86.0 °F 90.4 °F 69.8 °F 58% 29.70 in 10.0 mi South 24.2 mph 33.4 mph N/A   Clear
3:56 PM 86.0 °F 90.4 °F 69.8 °F 58% 29.70 in 10.0 mi South 21.9 mph 33.4 mph N/A   Clear
4:18 PM 86.0 °F 90.4 °F 69.8 °F 58% 29.69 in 10.0 mi South 24.2 mph 32.2 mph N/A   Clear
4:36 PM 86.0 °F 90.4 °F 69.8 °F 58% 29.69 in 10.0 mi South 24.2 mph 32.2 mph N/A   Clear
4:55 PM 86.0 °F 90.4 °F 69.8 °F 58% 29.69 in 10.0 mi South 25.3 mph 29.9 mph N/A   Clear
4:56 PM 86.0 °F 90.4 °F 69.8 °F 58% 29.69 in 10.0 mi South 26.5 mph 32.2 mph N/A   Clear
5:15 PM 86.0 °F 90.4 °F 69.8 °F 58% 29.69 in 10.0 mi South 20.7 mph 26.5 mph N/A   Clear
5:16 PM 86.0 °F 90.4 °F 69.8 °F 58% 29.69 in 10.0 mi South 20.7 mph 26.5 mph N/A   Clear
5:35 PM 84.2 °F 88.4 °F 69.8 °F 62% 29.69 in 10.0 mi South 19.6 mph 25.3 mph N/A   Clear
5:39 PM 84.2 °F 88.4 °F 69.8 °F 62% 29.70 in 10.0 mi South 17.3 mph 25.3 mph N/A   Clear
5:57 PM 84.2 °F 88.4 °F 69.8 °F 62% 29.70 in 10.0 mi South 17.3 mph 25.3 mph N/A   Clear
6:15 PM 84.2 °F 88.4 °F 69.8 °F 62% 29.70 in 10.0 mi South 18.4 mph - N/A   Clear
6:35 PM 82.4 °F 86.3 °F 69.8 °F 66% 29.70 in 10.0 mi South 18.4 mph 23.0 mph N/A   Clear
6:36 PM 82.4 °F 86.3 °F 69.8 °F 66% 29.70 in 10.0 mi South 17.3 mph 23.0 mph N/A   Clear
6:55 PM 82.4 °F 86.3 °F 69.8 °F 66% 29.70 in 10.0 mi South 15.0 mph 20.7 mph N/A   Clear
6:56 PM 82.4 °F 86.3 °F 69.8 °F 66% 29.71 in 10.0 mi South 15.0 mph 20.7 mph N/A   Clear
7:18 PM 80.6 °F 83.9 °F 69.8 °F 70% 29.71 in 10.0 mi South 13.8 mph - N/A   Clear
7:35 PM 80.6 °F 83.9 °F 69.8 °F 70% 29.72 in 10.0 mi South 13.8 mph - N/A   Clear
7:55 PM 80.6 °F 83.9 °F 69.8 °F 70% 29.72 in 10.0 mi South 11.5 mph - N/A   Clear
7:56 PM 80.6 °F 83.9 °F 69.8 °F 70% 29.72 in 10.0 mi South 12.7 mph - N/A   Clear
8:15 PM 78.8 °F - 69.8 °F 74% 29.73 in 10.0 mi South 13.8 mph - N/A   Clear
8:16 PM 78.8 °F - 69.8 °F 74% 29.73 in 10.0 mi South 13.8 mph - N/A   Clear
8:39 PM 78.8 °F - 69.8 °F 74% 29.73 in 10.0 mi South 15.0 mph 21.9 mph N/A   Clear
8:56 PM 78.8 °F - 69.8 °F 74% 29.74 in 10.0 mi South 17.3 mph - N/A   Clear
9:16 PM 78.8 °F - 69.8 °F 74% 29.73 in 10.0 mi South 16.1 mph 23.0 mph N/A   Clear
9:35 PM 78.8 °F - 68.0 °F 69% 29.73 in 10.0 mi SSE 15.0 mph - N/A   Clear
9:55 PM 78.8 °F - 68.0 °F 69% 29.73 in 10.0 mi South 18.4 mph 24.2 mph N/A   Clear
9:59 PM 78.8 °F - 68.0 °F 69% 29.73 in 10.0 mi South 18.4 mph - N/A   Clear
10:17 PM 78.8 °F - 66.2 °F 65% 29.73 in 10.0 mi South 17.3 mph 24.2 mph N/A   Clear
10:38 PM 78.8 °F - 66.2 °F 65% 29.72 in 10.0 mi South 19.6 mph 25.3 mph N/A   Clear
10:57 PM 78.8 °F - 66.2 °F 65% - 10.0 mi SSE 19.6 mph 26.5 mph N/A   Clear
11:16 PM 78.8 °F - - N/A% 29.72 in 10.0 mi South 18.4 mph 24.2 mph N/A   Clear
11:35 PM 78.8 °F - 66.2 °F 65% 29.71 in 10.0 mi South 19.6 mph 27.6 mph N/A   Clear
11:36 PM 78.8 °F - 66.2 °F 65% 29.71 in 10.0 mi South 18.4 mph 27.6 mph N/A   Clear
11:55 PM 77.0 °F - 66.2 °F 69% 29.70 in 10.0 mi SSE 20.7 mph 27.6 mph N/A   Clear